User: anonymous   Login
Location: Unspecified
(0.0000°N, 0.0000°E)
Time: 11:42:07
(UTC+00:00)
Language:

DSCS III B-4 - Orbit

View from above orbital plane
View from above orbital plane
View from above satellite
View from above satellite

Ground track
Ground track

The orbit data is extracted from the following two-line orbital elements,

1 16116U 85092B   18297.70659456 0.00000000  00000-0  00000-0 0    01
2 16116  15.3359   9.0330 0006008 347.0019  12.9946  0.98979485    06
Epoch (UTC): 24 October 2018 16:57:29
Eccentricity: 0.0006008
inclination: 15.3359°
perigee height: 36127 km
apogee height: 36178 km
right ascension of ascending node: 9.0330°
argument of perigee: 347.0019°
revolutions per day: 0.98979485
mean anomaly at epoch: 12.9946°
orbit number at epoch: 0

The dashed part of the orbit path shows where the satellite is in the earth's shadow,  

DLR